Location: ????? ???????
(25.7275°N, 32.5929°E)
Time: 11:07:26
(UTC+00:00)

Cosmos 1862 Rocket - Pass Details

Date: 02 March 2021
Orbit: 603 x 634 km, 82.5° (Epoch: 15 April)

Event Time Altitude Azimuth Distance (km) Brightness Sun altitude
Rises 17:10:51 0° 349° (NNW) 2,928 7.2 -18.6°
Reaches altitude 10° 17:13:07 10° 345° (NNW) 2,016 6.4 -19.1°
Maximum altitude 17:17:30 57° 267° (W) 741 4.2 -20.0°
Drops below altitude 10° 17:21:51 10° 188° (S) 1,995 6.2 -21.0°
Sets 17:24:05 0° 185° (S) 2,894 7.0 -21.5°
